This is the latest recevied weather packets stored in our database for station/object K9MWD. If no packets are shown the sender has not sent any weather packets the latest 10 day(s).
| Time | Temp. | Humidity | Pressure | Rain* | Wind** | Luminosity | Snow |
|---|---|---|---|---|---|---|---|
| 1777127113 | 23.89° C | 86% | 1008.3 hPa | 0 mm | - | 247 W/m² | - |
| 1777126810 | 23.89° C | 87% | 1008.3 hPa | 0 mm | - | 188 W/m² | - |
| 1777126506 | 23.89° C | 87% | 1008.2 hPa | 0 mm | - | 234 W/m² | - |
| 1777126201 | 23.89° C | 87% | 1008.2 hPa | 0 mm | - | 223 W/m² | - |
| 1777125898 | 23.89° C | 88% | 1008.1 hPa | 0 mm | - | 205 W/m² | - |
| 1777125594 | 23.33° C | 88% | 1008.3 hPa | 0 mm | - | 169 W/m² | - |
| 1777125290 | 23.33° C | 88% | 1008.1 hPa | 0 mm | - | 175 W/m² | - |
| 1777124989 | 23.33° C | 89% | 1008.2 hPa | 0 mm | - | 189 W/m² | - |
| 1777124687 | 23.33° C | 89% | 1008.4 hPa | 0 mm | - | 127 W/m² | - |
| 1777124382 | 23.33° C | 89% | 1008.4 hPa | 0 mm | - | 105 W/m² | - |
| 1777124079 | 23.33° C | 90% | 1008.2 hPa | 0 mm | - | 103 W/m² | - |
| 1777123776 | 22.78° C | 90% | 1008.3 hPa | 0 mm | - | 103 W/m² | - |
| 1777123473 | 22.78° C | 90% | 1008.2 hPa | 0 mm | - | 93 W/m² | - |
| 1777123167 | 22.78° C | 90% | 1008.3 hPa | 0 mm | - | 85 W/m² | - |
| 1777122865 | 22.78° C | 91% | 1008.3 hPa | 0 mm | - | 73 W/m² | - |
| 1777122561 | 22.78° C | 91% | 1008.3 hPa | 0 mm | - | 69 W/m² | - |
| 1777122256 | 22.78° C | 91% | 1008.4 hPa | 0 mm | - | 53 W/m² | - |
| 1777121953 | 22.78° C | 91% | 1008.1 hPa | 0 mm | - | 52 W/m² | - |
| 1777121650 | 22.78° C | 91% | 1008.1 hPa | 0 mm | - | 41 W/m² | - |
| 1777121346 | 22.78° C | 91% | 1007.9 hPa | 0 mm | - | 39 W/m² | - |
| 1777121043 | 22.78° C | 91% | 1008 hPa | 0 mm | - | 25 W/m² | - |
| 1777120738 | 22.78° C | 92% | 1008 hPa | 0 mm | - | 28 W/m² | - |
| 1777120435 | 22.78° C | 92% | 1007.8 hPa | 0 mm | - | 21 W/m² | - |
| 1777120130 | 22.78° C | 92% | 1007.8 hPa | 0 mm | - | 27 W/m² | - |
| 1777119826 | 22.22° C | 92% | 1007.5 hPa | 0 mm | - | 17 W/m² | - |
* Rain latest hour (hover to see other rain measurements)
** Current wind speed in m/s (hover to see current wind gust speed)